Regional Weather Roundup
Issued by NWS

Home | Current Version | Previous Version | Graphics & Text | Print | Product List | Glossary On
Versions: 1 2 3 4 5 6 7 8 9 10 11 12 13 14 15 16 17 18 19 20 21 22 23 24 25 26 27 28 29 30 31 32 33 34 35 36 37 38 39 40 41 42 43 44 45 46 47 48 49 50
258
ASUS45 KSLC 051510
RWRUT

UTAH REGIONAL WEATHER ROUNDUP
NATIONAL WEATHER SERVICE SALT LAKE CITY UT
800 AM MST FRI FEB 05 2016

UTZ001>011-023>025-051600-

NORTHERN UTAH

CITY           SKY/WX    TMP DP  RH WIND       PRES   REMARKS
BRIGHAM CITY   CLOUDY    26  24  91 CALM      30.56R
HILL AFB       FLURRIES  26  22  87 SE7       30.52S WCI  18
LOGAN          CLOUDY    23  21  92 SW3       30.53R FOG
OGDEN          CLOUDY    27  26  96 CALM      30.53R FOG
PROVO AIRPORT  MOCLDY    21  19  93 CALM      30.56R
SALT LAKE CITY MOCLDY    27  23  85 SE5       30.54S WCI  22
VERNAL         LGT SNOW  12  10  92 CALM      30.51R FOG
WENDOVER       CLOUDY    23  18  80 CALM      30.54R
HEBER CITY     FOG       14  10  85 E5        30.49S VSB<1/4 WCI   6
WEST JORDAN    MOCLDY    25  25 100 SE3       30.53S

$$

UTZ012>022-026-027-051600-

SOUTHERN/CENTRAL UTAH

CITY           SKY/WX    TMP DP  RH WIND       PRES   REMARKS
BLANDING       PTCLDY    11   9  94 CALM      30.51R
BRYCE CANYON   PTCLDY     9   5  84 W6        30.44R WCI  -1
CEDAR CITY     PTCLDY     9   6  88 E9        30.49R WCI  -4
DELTA            N/A      9   7  92 CALM      30.55S VSB<1/4
HANKSVILLE     CLOUDY    12  10  92 N5        30.59R WCI   4
MILFORD        CLOUDY     3  -1  83 S8        30.54R WCI -10
MOAB/CYNLANDS  CLOUDY    15  13  91 NW6       30.55R WCI   6
PRICE          CLOUDY     4  -2  76 CALM      30.45R HAZE
ST GEORGE      SUNNY     28  19  69 SE5       30.55R WCI  23
KANAB          CLEAR     32  19  59 N10       30.52  WCI  24

$$

REGIONAL REPORTS     COLORADO/ARIZONA

CITY           SKY/WX    TMP DP  RH WIND       PRES   REMARKS
CRAIG, CO      LGT SNOW  11   7  84 SE3       30.44R FOG
GRAND JUNCTION CLOUDY    17  15  92 CALM      30.55R FOG
RIFLE          LGT SNOW  11   8  88 W8        30.51R FOG     WCI  -1
MONTROSE       CLOUDY     6   2  83 S5        30.54R WCI  -3
CORTEZ         CLOUDY     2  -3  80 E7        30.43R WCI -11
PAGE, AZ       CLEAR     25  19  78 CALM      30.51R
GRAND CANYON   CLEAR      8   3  80 NE6       30.44R WCI  -2
KINGMAN        CLEAR     33  21  61 E8        30.43R WCI  26
FLAGSTAFF      CLEAR     22  14  71 NE21G28   30.36R WCI   6

$$

REGIONAL REPORTS    NEVADA/IDAHO/WYOMING

CITY           SKY/WX    TMP DP  RH WIND       PRES   REMARKS
LAS VEGAS, NV  PTCLDY    39  23  52 NW3       30.46R
ELY            PTCLDY    -1  -5  82 S17       30.53R WCI -22
ELKO           PTCLDY     8   5  87 CALM      30.54S FOG
POCATELLO, ID  CLOUDY    19  17  92 NE7       30.54R WCI  10
BURLEY         CLOUDY    32  28  85 CALM      30.50R
EVANSTON, WY   CLOUDY    19  15  84 W7        30.44R WCI  10
ROCK SPRINGS   CLOUDY    12   8  84 W17       30.38R WCI  -5

$$




USA.gov is the U.S. government's official web portal to all federal, state and local government web resources and services.